Station Historical Data
Daily Summary for July 24, 2017 Units:  English    Metric   Both
« Previous Day
Next Day »
Daily Weekly Monthly Yearly Custom
  High: Low: Average:
Temperature: 86.0 °F 68.5 °F 75.8 °F
Dew Point: 59.9 °F 44.5 °F 50.2 °F
Humidity: 64 % 24 % 42 %
Wind Speed: 11.0 mph 0.0 mph 2 mph
Wind Gust: 14.0 mph - -
Wind:- - SSE
Pressure: 29.84 in 29.76 in -
Precipitation: 0.00 in    
Historical Graphs
 
 
Tabular Data for July 24, 2017
Time Temperature Dew Point Pressure Wind Wind Speed Wind Gust Humidity Rainfall Rate (Hourly) solar
00:01 74.2 °F 50.3 °F 29.78 in ESE 4.0 mph 12.0 mph 43 % 0.00 in 0.00 W/m2
00:06 74.1 °F 50.2 °F 29.77 in East 8.0 mph 8.0 mph 43 % 0.00 in 0.00 W/m2
00:11 74.1 °F 50.2 °F 29.77 in East 2.0 mph 7.0 mph 43 % 0.00 in 0.00 W/m2
00:16 74.1 °F 50.2 °F 29.77 in East 4.0 mph 7.0 mph 43 % 0.00 in 0.00 W/m2
00:21 74.0 °F 50.1 °F 29.77 in ESE 2.0 mph 6.0 mph 43 % 0.00 in 0.00 W/m2
00:26 74.0 °F 50.1 °F 29.77 in ESE 2.0 mph 8.0 mph 43 % 0.00 in 0.00 W/m2
00:27 74.0 °F 50.1 °F 29.77 in ESE 5.0 mph 8.0 mph 43 % 0.00 in 0.00 W/m2
00:32 74.0 °F 50.7 °F 29.77 in Calm   9.0 mph 44 % 0.00 in 0.00 W/m2
00:37 73.9 °F 50.6 °F 29.77 in ESE 2.0 mph 11.0 mph 44 % 0.00 in 0.00 W/m2
00:42 73.9 °F 50.0 °F 29.77 in ESE 7.0 mph 12.0 mph 43 % 0.00 in 0.00 W/m2
00:47 73.8 °F 50.5 °F 29.77 in ESE 6.0 mph 9.0 mph 44 % 0.00 in 0.00 W/m2
00:52 73.8 °F 49.9 °F 29.77 in ESE 2.0 mph 9.0 mph 43 % 0.00 in 0.00 W/m2
00:57 73.7 °F 50.5 °F 29.77 in ESE 9.0 mph 9.0 mph 44 % 0.00 in 0.00 W/m2
01:02 73.7 °F 50.5 °F 29.77 in ESE 4.0 mph 8.0 mph 44 % 0.00 in 0.00 W/m2
01:07 73.6 °F 50.4 °F 29.77 in ESE 2.0 mph 7.0 mph 44 % 0.00 in 0.00 W/m2
01:12 73.5 °F 50.3 °F 29.77 in ESE 2.0 mph 9.0 mph 44 % 0.00 in 0.00 W/m2
01:17 73.5 °F 50.3 °F 29.77 in ESE 2.0 mph 7.0 mph 44 % 0.00 in 0.00 W/m2
01:22 73.4 °F 50.2 °F 29.77 in ESE 6.0 mph 13.0 mph 44 % 0.00 in 0.00 W/m2
01:27 73.3 °F 50.1 °F 29.77 in ESE 7.0 mph 12.0 mph 44 % 0.00 in 0.00 W/m2
01:32 73.3 °F 50.1 °F 29.77 in ESE 7.0 mph 9.0 mph 44 % 0.00 in 0.00 W/m2
01:37 73.2 °F 50.0 °F 29.77 in ESE 2.0 mph 9.0 mph 44 % 0.00 in 0.00 W/m2
01:42 73.1 °F 50.5 °F 29.76 in ESE 5.0 mph 9.0 mph 45 % 0.00 in 0.00 W/m2
01:47 73.1 °F 50.5 °F 29.76 in ESE 1.0 mph 8.0 mph 45 % 0.00 in 0.00 W/m2
01:52 73.0 °F 50.4 °F 29.76 in ESE 1.0 mph 6.0 mph 45 % 0.00 in 0.00 W/m2
01:57 73.0 °F 50.4 °F 29.76 in ESE 4.0 mph 7.0 mph 45 % 0.00 in 0.00 W/m2
02:02 72.9 °F 50.3 °F 29.76 in ESE 2.0 mph 7.0 mph 45 % 0.00 in 0.00 W/m2
02:07 72.9 °F 50.3 °F 29.76 in East 1.0 mph 7.0 mph 45 % 0.00 in 0.00 W/m2
02:12 72.8 °F 50.2 °F 29.76 in East 5.0 mph 8.0 mph 45 % 0.00 in 0.00 W/m2
02:17 72.7 °F 50.2 °F 29.76 in East 4.0 mph 7.0 mph 45 % 0.00 in 0.00 W/m2
02:22 72.6 °F 50.1 °F 29.76 in East 7.0 mph 7.0 mph 45 % 0.00 in 0.00 W/m2
02:27 72.5 °F 50.0 °F 29.76 in East 7.0 mph 8.0 mph 45 % 0.00 in 0.00 W/m2
02:32 72.4 °F 49.9 °F 29.76 in ESE 2.0 mph 11.0 mph 45 % 0.00 in 0.00 W/m2
02:37 72.4 °F 50.5 °F 29.76 in East 2.0 mph 8.0 mph 46 % 0.00 in 0.00 W/m2
02:42 72.3 °F 50.4 °F 29.76 in ESE 7.0 mph 9.0 mph 46 % 0.00 in 0.00 W/m2
02:43 72.3 °F 50.4 °F 29.76 in ESE 2.0 mph 9.0 mph 46 % 0.00 in 0.00 W/m2
02:48 72.2 °F 50.3 °F 29.76 in ESE 4.0 mph 8.0 mph 46 % 0.00 in 0.00 W/m2
02:53 72.2 °F 50.3 °F 29.76 in ESE 4.0 mph 7.0 mph 46 % 0.00 in 0.00 W/m2
02:58 72.2 °F 50.3 °F 29.76 in ESE 4.0 mph 7.0 mph 46 % 0.00 in 0.00 W/m2
03:03 72.1 °F 50.2 °F 29.76 in ESE 5.0 mph 6.0 mph 46 % 0.00 in 0.00 W/m2
03:08 72.1 °F 50.2 °F 29.76 in ESE 1.0 mph 8.0 mph 46 % 0.00 in 0.00 W/m2
03:13 72.1 °F 50.2 °F 29.76 in ESE 2.0 mph 9.0 mph 46 % 0.00 in 0.00 W/m2
03:18 72.0 °F 50.1 °F 29.76 in East 7.0 mph 11.0 mph 46 % 0.00 in 0.00 W/m2
03:23 71.9 °F 50.6 °F 29.76 in East 5.0 mph 11.0 mph 47 % 0.00 in 0.00 W/m2
03:28 71.8 °F 49.9 °F 29.76 in East 1.0 mph 8.0 mph 46 % 0.00 in 0.00 W/m2
03:33 71.7 °F 49.8 °F 29.76 in East 8.0 mph 9.0 mph 46 % 0.00 in 0.00 W/m2
03:38 71.6 °F 49.8 °F 29.76 in East 7.0 mph 7.0 mph 46 % 0.00 in 0.00 W/m2
03:43 71.6 °F 49.8 °F 29.76 in East 5.0 mph 8.0 mph 46 % 0.00 in 0.00 W/m2
03:48 71.6 °F 50.3 °F 29.76 in ESE 5.0 mph 9.0 mph 47 % 0.00 in 0.00 W/m2
03:53 71.5 °F 50.2 °F 29.76 in ESE 1.0 mph 6.0 mph 47 % 0.00 in 0.00 W/m2
03:58 71.5 °F 50.2 °F 29.76 in ESE 6.0 mph 9.0 mph 47 % 0.00 in 0.00 W/m2
04:03 71.5 °F 50.2 °F 29.76 in Calm   6.0 mph 47 % 0.00 in 0.00 W/m2
04:08 71.5 °F 50.2 °F 29.76 in Calm   6.0 mph 47 % 0.00 in 0.00 W/m2
04:13 71.5 °F 50.8 °F 29.76 in ESE 1.0 mph 7.0 mph 48 % 0.00 in 0.00 W/m2
04:18 71.4 °F 50.7 °F 29.76 in ESE 4.0 mph 6.0 mph 48 % 0.00 in 0.00 W/m2
04:23 71.3 °F 50.6 °F 29.76 in ESE 4.0 mph 9.0 mph 48 % 0.00 in 0.00 W/m2
04:28 71.3 °F 50.6 °F 29.76 in ESE 9.0 mph 9.0 mph 48 % 0.00 in 0.00 W/m2
04:33 71.2 °F 50.5 °F 29.76 in ESE 4.0 mph 9.0 mph 48 % 0.00 in 0.00 W/m2
04:38 71.2 °F 50.5 °F 29.76 in ESE 4.0 mph 7.0 mph 48 % 0.00 in 0.00 W/m2
04:43 71.1 °F 50.4 °F 29.76 in ESE 8.0 mph 8.0 mph 48 % 0.00 in 0.00 W/m2
04:48 71.0 °F 50.3 °F 29.76 in ESE 2.0 mph 8.0 mph 48 % 0.00 in 0.00 W/m2
04:53 71.0 °F 50.9 °F 29.77 in ESE 5.0 mph 8.0 mph 49 % 0.00 in 0.00 W/m2
04:58 71.0 °F 50.9 °F 29.77 in ESE 6.0 mph 7.0 mph 49 % 0.00 in 0.00 W/m2
05:03 70.9 °F 50.8 °F 29.77 in ESE 5.0 mph 7.0 mph 49 % 0.00 in 0.00 W/m2
05:08 70.9 °F 50.2 °F 29.77 in ESE 4.0 mph 11.0 mph 48 % 0.00 in 0.00 W/m2
05:13 70.8 °F 50.2 °F 29.77 in ESE 7.0 mph 7.0 mph 48 % 0.00 in 0.00 W/m2
05:18 70.8 °F 50.2 °F 29.77 in ESE 1.0 mph 8.0 mph 48 % 0.00 in 0.00 W/m2
05:23 70.8 °F 50.2 °F 29.77 in ESE 7.0 mph 9.0 mph 48 % 0.00 in 0.00 W/m2
05:28 70.8 °F 50.2 °F 29.77 in ESE 6.0 mph 8.0 mph 48 % 0.00 in 0.00 W/m2
05:33 70.7 °F 50.1 °F 29.77 in ESE 6.0 mph 8.0 mph 48 % 0.00 in 0.00 W/m2
05:38 70.7 °F 50.6 °F 29.77 in ESE 5.0 mph 8.0 mph 49 % 0.00 in 0.00 W/m2
05:43 70.7 °F 50.6 °F 29.77 in ESE 2.0 mph 7.0 mph 49 % 0.00 in 0.00 W/m2
05:48 70.6 °F 50.5 °F 29.77 in ESE 6.0 mph 11.0 mph 49 % 0.00 in 0.00 W/m2
05:53 70.6 °F 50.5 °F 29.77 in ESE 2.0 mph 7.0 mph 49 % 0.00 in 0.00 W/m2
05:54 70.6 °F 50.5 °F 29.77 in ESE 4.0 mph 8.0 mph 49 % 0.00 in 0.00 W/m2
05:59 70.5 °F 50.4 °F 29.77 in ESE 2.0 mph 9.0 mph 49 % 0.00 in 0.00 W/m2
06:04 70.5 °F 50.4 °F 29.77 in ESE 5.0 mph 11.0 mph 49 % 0.00 in 5.00 W/m2
06:09 70.4 °F 50.3 °F 29.77 in ESE 2.0 mph 8.0 mph 49 % 0.00 in 7.00 W/m2
06:14 70.5 °F 50.4 °F 29.77 in ESE 6.0 mph 11.0 mph 49 % 0.00 in 11.00 W/m2
06:19 70.4 °F 50.3 °F 29.77 in ESE 5.0 mph 11.0 mph 49 % 0.00 in 12.00 W/m2
06:25 70.4 °F 50.9 °F 29.77 in ESE 6.0 mph 11.0 mph 50 % 0.00 in 16.00 W/m2
06:29 70.4 °F 50.9 °F 29.78 in East 4.0 mph 12.0 mph 50 % 0.00 in 25.00 W/m2
06:35 70.4 °F 50.9 °F 29.77 in Calm   12.0 mph 50 % 0.00 in 32.00 W/m2
06:40 70.4 °F 50.9 °F 29.77 in ESE 4.0 mph 11.0 mph 50 % 0.00 in 47.00 W/m2
06:45 70.4 °F 51.4 °F 29.77 in ESE 2.0 mph 9.0 mph 51 % 0.00 in 62.00 W/m2
06:50 70.5 °F 51.5 °F 29.77 in ESE 7.0 mph 12.0 mph 51 % 0.00 in 70.00 W/m2
06:55 70.5 °F 51.5 °F 29.78 in Calm   11.0 mph 51 % 0.00 in 44.00 W/m2
07:00 70.6 °F 52.1 °F 29.77 in East 2.0 mph 11.0 mph 52 % 0.00 in 30.00 W/m2
07:05 70.6 °F 52.1 °F 29.77 in ESE 5.0 mph 12.0 mph 52 % 0.00 in 35.00 W/m2
07:10 70.7 °F 52.2 °F 29.77 in ESE 4.0 mph 11.0 mph 52 % 0.00 in 39.00 W/m2
07:15 70.7 °F 52.8 °F 29.77 in East 8.0 mph 12.0 mph 53 % 0.00 in 37.00 W/m2
07:20 70.7 °F 52.2 °F 29.77 in ESE 2.0 mph 13.0 mph 52 % 0.00 in 37.00 W/m2
07:25 70.7 °F 52.2 °F 29.77 in Calm   12.0 mph 52 % 0.00 in 120.00 W/m2
07:30 70.7 °F 52.2 °F 29.77 in ESE 11.0 mph 13.0 mph 52 % 0.00 in 204.00 W/m2
07:35 70.7 °F 52.8 °F 29.77 in ESE 6.0 mph 12.0 mph 53 % 0.00 in 113.00 W/m2
07:40 70.7 °F 53.3 °F 29.77 in ESE 5.0 mph 14.0 mph 54 % 0.00 in 54.00 W/m2
07:45 70.8 °F 52.8 °F 29.77 in ESE 5.0 mph 9.0 mph 53 % 0.00 in 53.00 W/m2
07:50 70.8 °F 53.3 °F 29.77 in East 4.0 mph 12.0 mph 54 % 0.00 in 51.00 W/m2
07:55 70.8 °F 53.3 °F 29.77 in East 4.0 mph 12.0 mph 54 % 0.00 in 58.00 W/m2
08:00 70.8 °F 53.8 °F 29.77 in East 9.0 mph 13.0 mph 55 % 0.00 in 62.00 W/m2
08:05 70.7 °F 53.8 °F 29.77 in East 5.0 mph 11.0 mph 55 % 0.00 in 54.00 W/m2
08:10 70.7 °F 53.8 °F 29.77 in East 9.0 mph 9.0 mph 55 % 0.00 in 53.00 W/m2
08:15 70.7 °F 53.8 °F 29.77 in East 6.0 mph 9.0 mph 55 % 0.00 in 79.00 W/m2
08:20 70.7 °F 54.2 °F 29.78 in ESE 4.0 mph 11.0 mph 56 % 0.00 in 220.00 W/m2
08:25 70.6 °F 54.2 °F 29.78 in Calm   8.0 mph 56 % 0.00 in 90.00 W/m2
08:30 70.6 °F 54.2 °F 29.78 in Calm   8.0 mph 56 % 0.00 in 190.00 W/m2
08:35 70.6 °F 54.6 °F 29.78 in Calm   8.0 mph 57 % 0.00 in 105.00 W/m2
08:40 70.6 °F 54.6 °F 29.78 in Calm   9.0 mph 57 % 0.00 in 469.00 W/m2
08:45 70.6 °F 55.1 °F 29.78 in ESE 1.0 mph 6.0 mph 58 % 0.00 in 459.00 W/m2
08:50 70.7 °F 55.7 °F 29.78 in Calm   5.0 mph 59 % 0.00 in 399.00 W/m2
08:55 70.8 °F 55.8 °F 29.78 in Calm   6.0 mph 59 % 0.00 in 527.00 W/m2
09:00 70.9 °F 55.9 °F 29.78 in Calm   6.0 mph 59 % 0.00 in 575.00 W/m2
09:05 71.1 °F 56.5 °F 29.78 in ESE 2.0 mph 6.0 mph 60 % 0.00 in 585.00 W/m2
09:10 71.3 °F 56.7 °F 29.78 in Calm   2.0 mph 60 % 0.00 in 413.00 W/m2
09:15 71.5 °F 56.9 °F 29.78 in Calm   6.0 mph 60 % 0.00 in 251.00 W/m2
09:20 72.0 °F 58.3 °F 29.78 in Calm     62 % 0.00 in 202.00 W/m2
09:25 72.4 °F 59.1 °F 29.78 in Calm     63 % 0.00 in 179.00 W/m2
09:30 72.6 °F 59.3 °F 29.78 in Calm     63 % 0.00 in 178.00 W/m2
09:36 72.8 °F 59.9 °F 29.78 in Calm   1.0 mph 64 % 0.00 in 218.00 W/m2
09:41 72.9 °F 59.1 °F 29.78 in Calm   1.0 mph 62 % 0.00 in 149.00 W/m2
09:46 73.0 °F 59.2 °F 29.78 in Calm     62 % 0.00 in 649.00 W/m2
09:51 73.1 °F 59.8 °F 29.78 in Calm     63 % 0.00 in 643.00 W/m2
09:56 73.2 °F 59.9 °F 29.78 in Calm   5.0 mph 63 % 0.00 in 647.00 W/m2
10:01 73.4 °F 58.7 °F 29.79 in Calm   4.0 mph 60 % 0.00 in 659.00 W/m2
10:06 73.7 °F 57.5 °F 29.79 in Calm   5.0 mph 57 % 0.00 in 668.00 W/m2
10:11 74.0 °F 54.7 °F 29.79 in Calm   2.0 mph 51 % 0.00 in 686.00 W/m2
10:16 74.2 °F 54.4 °F 29.79 in ESE 4.0 mph 4.0 mph 50 % 0.00 in 745.00 W/m2
10:17 74.2 °F 53.8 °F 29.79 in Calm   4.0 mph 49 % 0.00 in 657.00 W/m2
10:22 74.5 °F 53.0 °F 29.79 in Calm   1.0 mph 47 % 0.00 in 325.00 W/m2
10:27 74.6 °F 51.3 °F 29.79 in Calm     44 % 0.00 in 353.00 W/m2
10:32 74.6 °F 50.0 °F 29.80 in Calm   1.0 mph 42 % 0.00 in 842.00 W/m2
10:33 74.6 °F 50.7 °F 29.80 in Calm   1.0 mph 43 % 0.00 in 875.00 W/m2
10:38 74.7 °F 50.7 °F 29.80 in Calm   2.0 mph 43 % 0.00 in 294.00 W/m2
10:43 74.9 °F 50.3 °F 29.80 in Calm     42 % 0.00 in 844.00 W/m2
10:48 75.2 °F 49.9 °F 29.80 in Calm     41 % 0.00 in 768.00 W/m2
10:53 75.5 °F 50.8 °F 29.80 in Calm   1.0 mph 42 % 0.00 in 773.00 W/m2
10:58 75.9 °F 51.2 °F 29.80 in ESE 1.0 mph 2.0 mph 42 % 0.00 in 784.00 W/m2
11:03 76.2 °F 51.5 °F 29.80 in Calm     42 % 0.00 in 791.00 W/m2
11:08 76.5 °F 51.7 °F 29.80 in Calm     42 % 0.00 in 800.00 W/m2
11:13 76.9 °F 51.4 °F 29.80 in Calm   4.0 mph 41 % 0.00 in 809.00 W/m2
11:18 77.2 °F 50.3 °F 29.80 in Calm   1.0 mph 39 % 0.00 in 817.00 W/m2
11:19 77.3 °F 50.4 °F 29.80 in Calm   1.0 mph 39 % 0.00 in 819.00 W/m2
11:24 77.5 °F 50.6 °F 29.80 in Calm   1.0 mph 39 % 0.00 in 824.00 W/m2
11:29 77.8 °F 50.2 °F 29.80 in Calm   4.0 mph 38 % 0.00 in 837.00 W/m2
11:34 78.1 °F 49.7 °F 29.80 in Calm     37 % 0.00 in 842.00 W/m2
11:39 78.5 °F 50.1 °F 29.80 in Calm   5.0 mph 37 % 0.00 in 846.00 W/m2
11:44 78.9 °F 50.4 °F 29.80 in Calm   4.0 mph 37 % 0.00 in 853.00 W/m2
11:49 79.2 °F 50.7 °F 29.81 in Calm   2.0 mph 37 % 0.00 in 858.00 W/m2
11:54 79.5 °F 50.2 °F 29.80 in Calm   5.0 mph 36 % 0.00 in 870.00 W/m2
11:59 79.8 °F 50.5 °F 29.80 in Calm   7.0 mph 36 % 0.00 in 889.00 W/m2
12:04 80.1 °F 50.8 °F 29.80 in Calm     36 % 0.00 in 819.00 W/m2
12:09 80.4 °F 51.0 °F 29.80 in West 2.0 mph 5.0 mph 36 % 0.00 in 932.00 W/m2
12:14 80.6 °F 49.7 °F 29.81 in Calm   5.0 mph 34 % 0.00 in 765.00 W/m2
12:19 81.0 °F 50.0 °F 29.80 in Calm   1.0 mph 34 % 0.00 in 937.00 W/m2
12:25 81.4 °F 48.7 °F 29.81 in Calm   8.0 mph 32 % 0.00 in 912.00 W/m2
12:30 81.6 °F 49.7 °F 29.80 in Calm   3.0 mph 33 % 0.00 in 923.00 W/m2
12:35 82.1 °F 49.3 °F 29.81 in SW 2.0 mph 7.0 mph 32 % 0.00 in 930.00 W/m2
12:40 82.9 °F 48.3 °F 29.80 in SW 1.0 mph 6.0 mph 30 % 0.00 in 925.00 W/m2
12:45 83.8 °F 49.1 °F 29.80 in SW 2.0 mph 4.0 mph 30 % 0.00 in 930.00 W/m2
12:50 84.3 °F 47.7 °F 29.80 in Calm   7.0 mph 28 % 0.00 in 940.00 W/m2
12:55 84.7 °F 48.0 °F 29.80 in Calm   3.0 mph 28 % 0.00 in 925.00 W/m2
13:00 85.2 °F 47.5 °F 29.80 in SW 1.0 mph 7.0 mph 27 % 0.00 in 919.00 W/m2
13:05 85.6 °F 46.8 °F 29.80 in Calm   5.0 mph 26 % 0.00 in 923.00 W/m2
13:10 85.8 °F 47.0 °F 29.80 in WSW 4.0 mph 4.0 mph 26 % 0.00 in 921.00 W/m2
13:15 85.5 °F 47.7 °F 29.80 in West 1.0 mph 8.0 mph 27 % 0.00 in 921.00 W/m2
13:20 85.1 °F 45.4 °F 29.80 in West 7.0 mph 8.0 mph 25 % 0.00 in 911.00 W/m2
13:25 85.0 °F 46.3 °F 29.80 in Calm   7.0 mph 26 % 0.00 in 904.00 W/m2
13:30 85.4 °F 44.5 °F 29.80 in Calm   6.0 mph 24 % 0.00 in 902.00 W/m2
13:35 86.0 °F 46.1 °F 29.80 in Calm   4.0 mph 25 % 0.00 in 900.00 W/m2
13:40 85.9 °F 46.0 °F 29.80 in Calm   9.0 mph 25 % 0.00 in 896.00 W/m2
13:45 85.4 °F 46.7 °F 29.79 in Calm   1.0 mph 26 % 0.00 in 895.00 W/m2
13:50 84.9 °F 45.2 °F 29.79 in WSW 2.0 mph 9.0 mph 25 % 0.00 in 891.00 W/m2
13:55 84.7 °F 47.1 °F 29.79 in Calm   4.0 mph 27 % 0.00 in 886.00 W/m2
14:00 84.5 °F 45.9 °F 29.79 in WNW 4.0 mph 8.0 mph 26 % 0.00 in 882.00 W/m2
14:05 84.2 °F 45.6 °F 29.79 in Calm   3.0 mph 26 % 0.00 in 879.00 W/m2
14:10 84.3 °F 46.7 °F 29.79 in West 3.0 mph 7.0 mph 27 % 0.00 in 875.00 W/m2
14:15 84.4 °F 46.8 °F 29.79 in West 4.0 mph 10.0 mph 27 % 0.00 in 870.00 W/m2
14:20 84.4 °F 44.8 °F 29.79 in Calm   6.0 mph 25 % 0.00 in 865.00 W/m2
14:25 84.2 °F 46.6 °F 29.79 in WNW 2.0 mph 11.0 mph 27 % 0.00 in 860.00 W/m2
14:30 84.1 °F 46.5 °F 29.79 in West 1.0 mph 8.0 mph 27 % 0.00 in 853.00 W/m2
14:35 84.3 °F 44.7 °F 29.79 in Calm   6.0 mph 25 % 0.00 in 847.00 W/m2
14:40 84.5 °F 45.9 °F 29.78 in Calm   12.0 mph 26 % 0.00 in 842.00 W/m2
14:45 84.8 °F 46.1 °F 29.79 in WSW 3.0 mph 10.0 mph 26 % 0.00 in 833.00 W/m2
14:50 85.1 °F 45.4 °F 29.79 in Calm   5.0 mph 25 % 0.00 in 828.00 W/m2
14:55 85.5 °F 47.7 °F 29.79 in Calm   5.0 mph 27 % 0.00 in 819.00 W/m2
15:01 85.5 °F 48.7 °F 29.78 in West 1.0 mph 6.0 mph 28 % 0.00 in 812.00 W/m2
15:06 85.2 °F 47.5 °F 29.78 in West 3.0 mph 4.0 mph 27 % 0.00 in 803.00 W/m2
15:11 85.0 °F 47.3 °F 29.78 in Calm   8.0 mph 27 % 0.00 in 791.00 W/m2
15:16 85.0 °F 45.3 °F 29.78 in Calm   2.0 mph 25 % 0.00 in 786.00 W/m2
15:21 84.8 °F 47.1 °F 29.78 in WSW 4.0 mph 11.0 mph 27 % 0.00 in 775.00 W/m2
15:26 84.6 °F 47.0 °F 29.78 in Calm   7.0 mph 27 % 0.00 in 765.00 W/m2
15:27 84.5 °F 46.9 °F 29.78 in SW 2.0 mph 8.0 mph 27 % 0.00 in 758.00 W/m2
15:32 84.5 °F 45.9 °F 29.78 in SSW 4.0 mph 6.0 mph 26 % 0.00 in 751.00 W/m2
15:37 84.7 °F 46.1 °F 29.78 in Calm   4.0 mph 26 % 0.00 in 742.00 W/m2
15:42 84.8 °F 46.1 °F 29.78 in Calm   7.0 mph 26 % 0.00 in 715.00 W/m2
15:47 84.8 °F 46.1 °F 29.78 in Calm   1.0 mph 26 % 0.00 in 721.00 W/m2
15:52 84.9 °F 46.2 °F 29.77 in Calm   4.0 mph 26 % 0.00 in 715.00 W/m2
15:53 85.0 °F 46.3 °F 29.78 in Calm   4.0 mph 26 % 0.00 in 710.00 W/m2
15:58 85.1 °F 46.4 °F 29.77 in SSW 4.0 mph 6.0 mph 26 % 0.00 in 696.00 W/m2
16:03 85.2 °F 47.5 °F 29.77 in Calm   9.0 mph 27 % 0.00 in 687.00 W/m2
16:08 85.0 °F 46.3 °F 29.77 in SSW 5.0 mph 6.0 mph 26 % 0.00 in 673.00 W/m2
16:13 85.1 °F 46.4 °F 29.77 in Calm   8.0 mph 26 % 0.00 in 664.00 W/m2
16:19 85.1 °F 47.4 °F 29.77 in WSW 7.0 mph 7.0 mph 27 % 0.00 in 647.00 W/m2
16:24 85.1 °F 46.4 °F 29.77 in WSW 1.0 mph 6.0 mph 26 % 0.00 in 635.00 W/m2
16:29 85.1 °F 46.4 °F 29.77 in WSW 4.0 mph 11.0 mph 26 % 0.00 in 622.00 W/m2
16:34 85.0 °F 47.3 °F 29.77 in SW 6.0 mph 10.0 mph 27 % 0.00 in 608.00 W/m2
16:39 84.9 °F 47.2 °F 29.77 in Calm   5.0 mph 27 % 0.00 in 596.00 W/m2
16:44 84.8 °F 49.0 °F 29.77 in Calm   4.0 mph 29 % 0.00 in 578.00 W/m2
16:49 84.5 °F 46.9 °F 29.77 in SW 6.0 mph 8.0 mph 27 % 0.00 in 568.00 W/m2
16:54 84.3 °F 45.7 °F 29.77 in SW 1.0 mph 9.0 mph 26 % 0.00 in 550.00 W/m2
16:59 84.3 °F 46.7 °F 29.77 in Calm   5.0 mph 27 % 0.00 in 534.00 W/m2
17:04 84.2 °F 49.4 °F 29.77 in Calm   4.0 mph 30 % 0.00 in 520.00 W/m2
17:09 84.1 °F 47.5 °F 29.77 in SW 2.0 mph 10.0 mph 28 % 0.00 in 506.00 W/m2
17:14 84.1 °F 47.5 °F 29.77 in Calm   9.0 mph 28 % 0.00 in 492.00 W/m2
17:19 84.1 °F 47.5 °F 29.77 in Calm   7.0 mph 28 % 0.00 in 476.00 W/m2
17:24 84.1 °F 48.5 °F 29.76 in Calm   6.0 mph 29 % 0.00 in 464.00 W/m2
17:29 84.1 °F 47.5 °F 29.76 in Calm     28 % 0.00 in 448.00 W/m2
17:34 84.1 °F 49.3 °F 29.77 in Calm   7.0 mph 30 % 0.00 in 431.00 W/m2
17:39 84.0 °F 46.5 °F 29.76 in Calm   5.0 mph 27 % 0.00 in 415.00 W/m2
17:45 83.8 °F 48.2 °F 29.77 in Calm   5.0 mph 29 % 0.00 in 401.00 W/m2
17:50 83.6 °F 49.8 °F 29.77 in West 1.0 mph 5.0 mph 31 % 0.00 in 385.00 W/m2
17:55 83.3 °F 48.7 °F 29.77 in Calm   4.0 mph 30 % 0.00 in 369.00 W/m2
18:00 83.0 °F 49.3 °F 29.77 in West 5.0 mph 8.0 mph 31 % 0.00 in 353.00 W/m2
18:05 82.8 °F 49.1 °F 29.77 in Calm   5.0 mph 31 % 0.00 in 339.00 W/m2
18:10 82.5 °F 48.8 °F 29.77 in West 3.0 mph 6.0 mph 31 % 0.00 in 322.00 W/m2
18:15 82.2 °F 50.3 °F 29.78 in Calm   7.0 mph 33 % 0.00 in 308.00 W/m2
18:20 82.1 °F 50.2 °F 29.78 in West 1.0 mph 2.0 mph 33 % 0.00 in 290.00 W/m2
18:25 81.9 °F 50.0 °F 29.78 in Calm   4.0 mph 33 % 0.00 in 274.00 W/m2
18:30 81.7 °F 49.8 °F 29.78 in Calm   1.0 mph 33 % 0.00 in 258.00 W/m2
18:35 81.6 °F 50.5 °F 29.78 in Calm   8.0 mph 34 % 0.00 in 244.00 W/m2
18:40 81.5 °F 51.2 °F 29.78 in Calm   2.0 mph 35 % 0.00 in 230.00 W/m2
18:45 81.4 °F 51.9 °F 29.78 in Calm   3.0 mph 36 % 0.00 in 220.00 W/m2
18:50 81.2 °F 51.0 °F 29.78 in Calm   3.0 mph 35 % 0.00 in 204.00 W/m2
18:55 81.1 °F 51.7 °F 29.78 in WSW 5.0 mph 5.0 mph 36 % 0.00 in 185.00 W/m2
19:00 81.0 °F 52.3 °F 29.78 in Calm   2.0 mph 37 % 0.00 in 169.00 W/m2
19:05 80.9 °F 52.2 °F 29.79 in Calm   3.0 mph 37 % 0.00 in 151.00 W/m2
19:10 80.7 °F 52.0 °F 29.78 in Calm   4.0 mph 37 % 0.00 in 134.00 W/m2
19:15 80.5 °F 52.6 °F 29.78 in Calm   4.0 mph 38 % 0.00 in 118.00 W/m2
19:20 80.1 °F 52.9 °F 29.78 in Calm     39 % 0.00 in 100.00 W/m2
19:25 79.6 °F 52.5 °F 29.79 in Calm     39 % 0.00 in 84.00 W/m2
19:30 79.2 °F 52.8 °F 29.79 in Calm   4.0 mph 40 % 0.00 in 69.00 W/m2
19:35 78.7 °F 52.4 °F 29.79 in Calm   2.0 mph 40 % 0.00 in 58.00 W/m2
19:40 78.5 °F 50.8 °F 29.79 in WSW 2.0 mph 3.0 mph 38 % 0.00 in 46.00 W/m2
19:45 78.2 °F 51.9 °F 29.79 in Calm   4.0 mph 40 % 0.00 in 37.00 W/m2
19:50 78.0 °F 52.4 °F 29.79 in WSW 3.0 mph 6.0 mph 41 % 0.00 in 28.00 W/m2
19:55 77.8 °F 51.6 °F 29.79 in Calm   4.0 mph 40 % 0.00 in 21.00 W/m2
20:00 77.5 °F 51.3 °F 29.80 in Calm   1.0 mph 40 % 0.00 in 18.00 W/m2
20:05 76.7 °F 51.2 °F 29.80 in Calm     41 % 0.00 in 16.00 W/m2
20:10 76.1 °F 52.0 °F 29.80 in Calm   4.0 mph 43 % 0.00 in 12.00 W/m2
20:15 75.8 °F 51.7 °F 29.80 in West 4.0 mph 4.0 mph 43 % 0.00 in 11.00 W/m2
20:19 75.6 °F 51.5 °F 29.80 in West 3.0 mph 4.0 mph 43 % 0.00 in 7.00 W/m2
20:24 75.4 °F 51.4 °F 29.80 in Calm   5.0 mph 43 % 0.00 in 5.00 W/m2
20:29 74.8 °F 51.5 °F 29.81 in West 2.0 mph 4.0 mph 44 % 0.00 in 0.00 W/m2
20:34 74.1 °F 50.8 °F 29.81 in Calm   4.0 mph 44 % 0.00 in 0.00 W/m2
20:39 73.9 °F 50.6 °F 29.81 in West 4.0 mph 4.0 mph 44 % 0.00 in 0.00 W/m2
20:44 73.5 °F 50.9 °F 29.81 in Calm   4.0 mph 45 % 0.00 in 0.00 W/m2
20:49 72.8 °F 50.2 °F 29.81 in Calm     45 % 0.00 in 0.00 W/m2
20:54 72.3 °F 50.4 °F 29.81 in Calm     46 % 0.00 in 0.00 W/m2
20:59 71.9 °F 50.0 °F 29.81 in Calm     46 % 0.00 in 0.00 W/m2
21:04 71.7 °F 49.8 °F 29.81 in Calm     46 % 0.00 in 0.00 W/m2
21:09 71.5 °F 49.1 °F 29.81 in Calm     45 % 0.00 in 0.00 W/m2
21:14 71.4 °F 49.6 °F 29.82 in Calm     46 % 0.00 in 0.00 W/m2
21:19 71.2 °F 49.4 °F 29.82 in West 3.0 mph 3.0 mph 46 % 0.00 in 0.00 W/m2
21:24 71.0 °F 49.2 °F 29.82 in Calm   4.0 mph 46 % 0.00 in 0.00 W/m2
21:29 70.8 °F 49.0 °F 29.83 in West 3.0 mph 3.0 mph 46 % 0.00 in 0.00 W/m2
21:34 70.5 °F 48.8 °F 29.83 in West 2.0 mph 3.0 mph 46 % 0.00 in 0.00 W/m2
21:36 70.4 °F 49.2 °F 29.83 in West 2.0 mph 2.0 mph 47 % 0.00 in 0.00 W/m2
21:41 70.1 °F 49.0 °F 29.83 in West 3.0 mph 3.0 mph 47 % 0.00 in 0.00 W/m2
21:46 69.9 °F 48.8 °F 29.82 in West 3.0 mph 4.0 mph 47 % 0.00 in 0.00 W/m2
21:51 69.7 °F 48.6 °F 29.83 in West 2.0 mph 4.0 mph 47 % 0.00 in 0.00 W/m2
21:56 69.5 °F 48.4 °F 29.83 in West 2.0 mph 3.0 mph 47 % 0.00 in 0.00 W/m2
22:01 69.4 °F 48.3 °F 29.83 in West 4.0 mph 4.0 mph 47 % 0.00 in 0.00 W/m2
22:06 69.3 °F 48.2 °F 29.83 in West 3.0 mph 4.0 mph 47 % 0.00 in 0.00 W/m2
22:11 69.1 °F 48.0 °F 29.83 in West 2.0 mph 4.0 mph 47 % 0.00 in 0.00 W/m2
22:16 69.0 °F 48.5 °F 29.83 in West 2.0 mph 3.0 mph 48 % 0.00 in 0.00 W/m2
22:21 68.9 °F 48.4 °F 29.83 in West 2.0 mph 3.0 mph 48 % 0.00 in 0.00 W/m2
22:26 68.9 °F 47.9 °F 29.84 in West 2.0 mph 3.0 mph 47 % 0.00 in 0.00 W/m2
22:31 68.9 °F 47.9 °F 29.84 in Calm     47 % 0.00 in 0.00 W/m2
22:36 68.9 °F 48.4 °F 29.83 in West 1.0 mph 2.0 mph 48 % 0.00 in 0.00 W/m2
22:41 68.8 °F 47.8 °F 29.83 in Calm     47 % 0.00 in 0.00 W/m2
22:43 68.8 °F 48.3 °F 29.83 in Calm     48 % 0.00 in 0.00 W/m2
22:48 68.8 °F 47.8 °F 29.83 in Calm     47 % 0.00 in 0.00 W/m2
22:53 68.6 °F 48.2 °F 29.83 in Calm     48 % 0.00 in 0.00 W/m2
22:58 68.5 °F 48.1 °F 29.83 in Calm     48 % 0.00 in 0.00 W/m2
23:03 68.5 °F 48.1 °F 29.84 in Calm   1.0 mph 48 % 0.00 in 0.00 W/m2
23:08 68.5 °F 48.1 °F 29.84 in Calm     48 % 0.00 in 0.00 W/m2
23:13 68.6 °F 48.7 °F 29.84 in Calm   3.0 mph 49 % 0.00 in 0.00 W/m2
23:18 68.6 °F 48.7 °F 29.84 in Calm   1.0 mph 49 % 0.00 in 0.00 W/m2
23:23 68.6 °F 48.7 °F 29.84 in Calm     49 % 0.00 in 0.00 W/m2
23:28 68.5 °F 48.6 °F 29.84 in Calm   2.0 mph 49 % 0.00 in 0.00 W/m2
23:33 68.5 °F 48.6 °F 29.84 in Calm     49 % 0.00 in 0.00 W/m2
23:38 68.5 °F 48.6 °F 29.84 in Calm     49 % 0.00 in 0.00 W/m2
23:43 68.5 °F 48.6 °F 29.84 in Calm     49 % 0.00 in 0.00 W/m2
23:48 68.5 °F 48.6 °F 29.84 in Calm     49 % 0.00 in 0.00 W/m2
23:53 68.5 °F 49.2 °F 29.84 in Calm     50 % 0.00 in 0.00 W/m2
23:58 68.5 °F 49.2 °F 29.84 in Calm   1.0 mph 50 % 0.00 in 0.00 W/m2
Juneau County Weather
Compliments of Weather Underground - 4.5 mb
 WU-history PHP script courtesy of   Juneau County Weather.
powered by Cumulus v1.9.3 (1059)
Ambient Weather VWS v14.00
Top Contact Website Map Copyright © 2007 - 2018 Foresthillweather.com Never base important decisions on this or any weather information obtained from the Internet